Location: Byszew
(52.1813°N, 19.2693°E)
Time: 19:04:27
(UTC+00:00)

NOAA 18 - Pass Details

Date: 01 July 2022
Orbit: 839 x 860 km, 98.9° (Epoch: 17 August)

Event Time Altitude Azimuth Distance (km) Brightness Sun altitude
Exits shadow 20:56:37 - 192° (SSW) 2,741 7.4 -11.0°
Reaches altitude 10° 20:57:21 10° 195° (SSW) 2,479 7.2 -11.0°
Maximum altitude 21:02:27 39° 263° (W) 1,277 6.3 -11.4°
Drops below altitude 10° 21:07:38 10° 332° (NNW) 2,507 9.2 -11.7°
Sets 21:10:12 0° 340° (NNW) 3,450 10.6 -11.8°
